[[{"header":{"parameterUnit":"m.s-1","parameterCategory":1,"la1":30.2991,"la2":30.254,"lo1":-89.0895,"lo2":-89.0444,"dy":0.0017,"dx":0.0017,"nx":28,"ny":28,"refTime":"2024-08-09T09:00:00:Z","depth":0,"parameterNumber":2,"parameterNumberName":"U-component_of_WINDS"},"data":[0,0,0,0,0,0,0,0,0,0,0,0,0,0,0,0,0,0,0,0,0,0,0,0,0,0,0,0,0,0,0,0,0,0,0,0,0,0,0,0,0,0,0,0,0,0,0,0,0,0,0,0,0,0,0,0,0,0,1.4987,1.4987,0,1.4963,1.4962,1.4962,1.4917,1.4916,1.4915,1.4914,1.489,1.489,1.4891,0,0,0,0,0,0,0,0,0,0,0,0,0,1.4998,1.4998,1.4987,1.4987,1.4987,1.4963,1.4962,1.4962,1.4917,1.4916,1.4915,1.4914,1.489,1.489,1.4891,0,0,0,0,0,0,0,0,0,0,0,0,0,1.4985,1.4998,1.4987,1.4961,1.4959,1.4963,1.4962,1.4962,1.4917,1.4916,1.4915,1.4913,1.489,1.489,1.4891,1.4919,0,0,1.4891,1.4892,0,0,0,0,0,0,0,0,1.4986,1.4985,1.4965,1.4963,1.496,1.4941,1.4957,1.4947,1.4917,1.4933,1.4914,1.4913,1.4908,1.4907,1.4905,1.4917,1.4916,1.4891,1.4892,1.4892,1.4892,0,0,0,0,0,0,0,1.4987,1.4986,1.4978,1.4965,1.4962,1.4952,1.4948,1.4955,1.4928,1.4932,1.4928,1.4926,1.4907,1.4905,1.4904,1.4916,1.4891,1.4892,1.4892,1.4892,1.4953,1.4954,0,0,0,0,0,0,1.4992,1.4987,1.4978,1.4977,1.497,1.4953,1.4949,1.4949,1.4928,1.4924,1.4927,1.4924,1.4905,1.4904,1.4903,1.4936,1.4892,1.4892,1.4892,1.4951,1.4953,1.4954,0,0,0,0,0,0,1.4992,1.4991,1.4979,1.4981,1.4979,1.4954,1.4954,1.4949,1.4947,1.4925,1.492,1.493,1.4904,1.4903,1.4916,1.4935,1.4892,1.4892,1.4949,1.4952,1.4954,1.5002,0,0,0,0,0,0,1.4992,1.4992,1.5001,1.4982,1.4979,1.4991,1.4955,1.4949,1.4948,1.4943,1.4926,1.4922,1.4903,1.4915,1.4916,1.4934,1.4893,1.4948,1.495,1.4953,1.4998,1.5005,1.5011,0,0,0,0,0,1.4993,1.5015,1.5002,1.5001,1.499,1.4992,1.4991,1.4968,1.4949,1.496,1.4945,1.4923,1.4933,1.4917,1.4917,1.4936,1.4946,1.495,1.4953,1.4995,1.5004,1.5011,0,0,0,0,0,0,1.5038,1.5012,1.4997,1.5013,1.5006,1.4985,1.4996,1.4977,1.4974,1.4971,1.4943,1.4939,1.4956,1.4947,1.493,1.4964,1.4936,1.494,1.4969,1.4976,1.4983,1.4985,1.4893,0,0,0,0,0,1.505,1.5053,1.5031,1.5048,1.5044,1.5021,1.5021,1.5005,1.4995,1.4992,1.4978,1.4971,1.4972,1.4974,1.4974,1.4997,1.4994,1.501,1.5017,1.5022,1.5026,1.504,1.5047,1.4965,1.4965,1.4965,0,0,1.5074,1.5061,1.5064,1.5056,1.5048,1.5053,1.5019,1.5025,1.5029,1.4993,1.5004,1.4994,1.4984,1.5003,1.501,1.4996,1.5048,1.5026,1.5031,1.5031,1.5044,1.5052,1.5059,1.4967,1.4967,1.4967,0,0,1.5121,1.5111,1.5125,1.5117,1.5106,1.509,1.5094,1.5076,1.5069,1.508,1.5053,1.5058,1.5061,1.5055,1.5053,1.5101,1.5081,1.5102,1.5136,1.515,1.5156,1.5162,1.5181,1.5188,1.5105,1.5105,1.5105,0,1.5153,1.5159,1.5134,1.5143,1.5141,1.5109,1.5123,1.5118,1.5107,1.5107,1.5091,1.5095,1.5086,1.5104,1.5116,1.5115,1.5119,1.5103,1.5157,1.5163,1.5167,1.5185,1.5192,1.5108,1.5108,1.5107,1.5107,0,1.52,1.5205,1.5217,1.5208,1.5207,1.5219,1.5197,1.52,1.5184,1.5171,1.5184,1.5172,1.517,1.5173,1.5157,1.519,1.5182,1.5162,1.5134,1.5178,1.5195,1.5201,1.5112,1.5111,1.511,1.5109,0,0,1.5274,1.5251,1.5257,1.5253,1.5239,1.5242,1.5254,1.5252,1.5255,1.525,1.5259,1.5264,1.5246,1.5243,1.5227,1.5239,1.5281,1.5218,1.5217,1.5231,1.5318,1.5334,1.5342,1.5267,1.5268,1.5269,1.532,0,1.5318,1.5335,1.5314,1.5336,1.5342,1.5312,1.5322,1.5316,1.5305,1.5308,1.5296,1.53,1.5276,1.5274,1.5285,1.5273,1.5298,1.5269,1.5278,1.5278,1.5282,1.535,1.5366,1.5414,1.5326,1.5327,1.5327,0,1.5373,1.537,1.5393,1.5379,1.538,1.539,1.5387,1.5391,1.5383,1.5375,1.5373,1.5354,1.5366,1.5339,1.5356,1.5337,1.5339,1.5334,1.5336,1.5336,1.5306,1.5354,1.5429,1.5437,1.5337,1.5336,1.5335,0,1.5426,1.5428,1.5442,1.544,1.5424,1.5431,1.5425,1.5416,1.5417,1.5416,1.5417,1.5417,1.5417,1.5419,1.5401,1.5382,1.5421,1.5392,1.5416,1.5416,1.5425,1.5425,1.5503,1.5425,1.5425,1.5425,1.5425,0,1.5479,1.5494,1.5466,1.5475,1.5493,1.5469,1.5487,1.5478,1.5471,1.5479,1.5454,1.5462,1.5437,1.5443,1.543,1.5447,1.5447,1.5442,1.5438,1.5445,1.5446,1.5446,1.5443,1.5427,1.5426,1.5426,1.5426,0,1.5541,1.5523,1.5537,1.5521,1.5517,1.5531,1.5518,1.5527,1.5515,1.5525,1.5526,1.5508,1.5514,1.5496,1.55,1.5491,1.5517,1.5507,1.5519,1.5517,1.5542,1.5541,1.5624,1.5635,1.5549,1.555,1.5551,0,1.5576,1.5588,1.5573,1.5577,1.5572,1.5577,1.5579,1.5557,1.5559,1.5553,1.5563,1.5567,1.557,1.5581,1.5569,1.5572,1.5564,1.5593,1.5564,1.5571,1.5566,1.5566,1.5568,1.5599,1.56,1.5601,1.5601,0,1.5641,1.5632,1.5634,1.5635,1.5637,1.5636,1.5633,1.5638,1.5614,1.5619,1.5625,1.5627,1.5631,1.5637,1.5638,1.5633,1.5614,1.5611,1.5617,1.5624,1.5631,1.5629,1.5537,1.5609,1.5608,1.5607,1.5607,1.5607,1.5692,1.5702,1.5694,1.5698,1.5694,1.5692,1.57,1.569,1.5694,1.5696,1.5683,1.5692,1.5687,1.5687,1.5684,1.5692,1.5679,1.5687,1.569,1.5693,1.5698,1.5629,1.5692,1.5692,1.5692,1.5692,1.5692,0,1.5757,1.5751,1.5755,1.5752,1.5756,1.5738,1.5735,1.574,1.5748,1.5745,1.5748,1.5756,1.5762,1.5751,1.5756,1.5765,1.5757,1.5767,1.5766,1.5766,1.5708,1.5703,1.5773,1.5773,1.5773,1.5773,1.5773,1.5773,1.5791,1.5807,1.5798,1.5812,1.5806,1.5815,1.5815,1.5815,1.5812,1.5822,1.5827,1.5819,1.5814,1.5818,1.5823,1.582,1.5824,1.5838,1.5832,1.5778,1.577,1.5762,1.5758,1.5838,1.5838,1.5889,1.589,1.589]},{"header":{"parameterUnit":"m.s-1","parameterCategory":1,"la1":30.2991,"la2":30.254,"lo1":-89.0895,"lo2":-89.0444,"dy":0.0017,"dx":0.0017,"nx":28,"ny":28,"refTime":"2024-08-09T09:00:00:Z","depth":0,"parameterNumber":3,"parameterNumberName":"V-component_of_WINDS"},"data":[0,0,0,0,0,0,0,0,0,0,0,0,0,0,0,0,0,0,0,0,0,0,0,0,0,0,0,0,0,0,0,0,0,0,0,0,0,0,0,0,0,0,0,0,0,0,0,0,0,0,0,0,0,0,0,0,0,0,-3.3188,-3.3188,0,-3.3165,-3.3165,-3.3164,-3.3126,-3.3125,-3.3124,-3.3124,-3.3097,-3.3097,-3.3097,0,0,0,0,0,0,0,0,0,0,0,0,0,-3.3195,-3.3195,-3.3188,-3.3188,-3.3188,-3.3165,-3.3164,-3.3164,-3.3126,-3.3125,-3.3124,-3.3123,-3.3097,-3.3097,-3.3097,0,0,0,0,0,0,0,0,0,0,0,0,0,-3.3184,-3.3195,-3.3188,-3.3166,-3.3163,-3.3165,-3.3164,-3.3164,-3.3126,-3.3125,-3.3124,-3.3123,-3.3097,-3.3097,-3.3097,-3.3118,0,0,-3.3097,-3.3097,0,0,0,0,0,0,0,0,-3.3185,-3.3184,-3.3169,-3.3167,-3.3165,-3.3147,-3.3157,-3.3149,-3.3126,-3.314,-3.3124,-3.3122,-3.3115,-3.3113,-3.3111,-3.3117,-3.3116,-3.3097,-3.3097,-3.3097,-3.3097,0,0,0,0,0,0,0,-3.3186,-3.3185,-3.3179,-3.3169,-3.3166,-3.3155,-3.3153,-3.3155,-3.3133,-3.3139,-3.3136,-3.3134,-3.3113,-3.3111,-3.311,-3.3115,-3.3097,-3.3097,-3.3097,-3.3097,-3.3133,-3.3134,0,0,0,0,0,0,-3.319,-3.3186,-3.318,-3.3178,-3.3172,-3.3156,-3.3153,-3.3154,-3.3133,-3.3129,-3.3135,-3.3132,-3.3112,-3.311,-3.3109,-3.3129,-3.3097,-3.3097,-3.3097,-3.3132,-3.3133,-3.3134,0,0,0,0,0,0,-3.319,-3.319,-3.318,-3.3181,-3.3179,-3.3157,-3.3158,-3.3154,-3.3152,-3.313,-3.3126,-3.3137,-3.3111,-3.3109,-3.3115,-3.3128,-3.3097,-3.3097,-3.3131,-3.3132,-3.3134,-3.3172,0,0,0,0,0,0,-3.3191,-3.319,-3.3199,-3.3182,-3.3179,-3.3189,-3.3159,-3.3154,-3.3152,-3.3148,-3.3131,-3.3127,-3.311,-3.3116,-3.3115,-3.3127,-3.3097,-3.3129,-3.3131,-3.3133,-3.317,-3.3175,-3.3179,0,0,0,0,0,-3.3191,-3.3211,-3.32,-3.3199,-3.319,-3.319,-3.3188,-3.3168,-3.3153,-3.3161,-3.3147,-3.3128,-3.3127,-3.3117,-3.3116,-3.3128,-3.3128,-3.3131,-3.3133,-3.3167,-3.3174,-3.3179,0,0,0,0,0,0,-3.3231,-3.3209,-3.3196,-3.3211,-3.3202,-3.3183,-3.3193,-3.3176,-3.3171,-3.3168,-3.3142,-3.3139,-3.3148,-3.3139,-3.3128,-3.3145,-3.3124,-3.3127,-3.3151,-3.3157,-3.3161,-3.3163,-3.3097,0,0,0,0,0,-3.3241,-3.3244,-3.3224,-3.3239,-3.3236,-3.3215,-3.3214,-3.3199,-3.3189,-3.3185,-3.3172,-3.3162,-3.3158,-3.3157,-3.3154,-3.3168,-3.3162,-3.3176,-3.3181,-3.3185,-3.3186,-3.319,-3.3195,-3.3141,-3.3141,-3.3141,0,0,-3.3263,-3.3251,-3.3255,-3.3247,-3.3239,-3.324,-3.3212,-3.3216,-3.3216,-3.3186,-3.319,-3.318,-3.3167,-3.3176,-3.318,-3.3169,-3.32,-3.3187,-3.3191,-3.319,-3.3193,-3.3198,-3.3203,-3.3143,-3.3143,-3.3142,0,0,-3.3303,-3.3296,-3.3306,-3.3298,-3.3286,-3.3271,-3.3274,-3.3256,-3.3248,-3.3253,-3.3229,-3.3228,-3.3225,-3.3215,-3.321,-3.3244,-3.3225,-3.3243,-3.3268,-3.3272,-3.3276,-3.3279,-3.3289,-3.3293,-3.3245,-3.3245,-3.3245,0,-3.3331,-3.3334,-3.3313,-3.3318,-3.3314,-3.3286,-3.3295,-3.3288,-3.3275,-3.3272,-3.326,-3.3253,-3.3243,-3.3248,-3.3256,-3.3254,-3.3254,-3.3245,-3.3277,-3.3281,-3.3284,-3.3292,-3.3296,-3.3247,-3.3247,-3.3247,-3.3247,0,-3.3368,-3.337,-3.338,-3.3368,-3.3365,-3.3372,-3.335,-3.335,-3.3335,-3.3321,-3.3324,-3.331,-3.3302,-3.3302,-3.3288,-3.3305,-3.3298,-3.3282,-3.3261,-3.3291,-3.3299,-3.3302,-3.3251,-3.325,-3.3249,-3.3249,0,0,-3.3433,-3.3408,-3.3412,-3.3405,-3.3388,-3.3389,-3.3393,-3.3385,-3.3384,-3.3375,-3.3377,-3.3373,-3.3357,-3.3351,-3.3335,-3.3339,-3.3363,-3.3322,-3.3321,-3.3328,-3.3378,-3.3389,-3.3393,-3.3351,-3.3351,-3.3352,-3.3378,0,-3.3468,-3.3476,-3.3456,-3.3467,-3.3467,-3.344,-3.3443,-3.3432,-3.3419,-3.3415,-3.34,-3.3397,-3.3378,-3.3374,-3.3376,-3.336,-3.3372,-3.3358,-3.335,-3.335,-3.3353,-3.3398,-3.341,-3.3435,-3.3381,-3.3382,-3.3382,0,-3.3511,-3.3504,-3.3515,-3.3496,-3.3495,-3.3499,-3.3488,-3.3486,-3.3472,-3.3462,-3.3454,-3.3435,-3.3435,-3.3415,-3.3414,-3.3405,-3.34,-3.3391,-3.3391,-3.3389,-3.3367,-3.3394,-3.3443,-3.3446,-3.3387,-3.3387,-3.3386,0,-3.3554,-3.3548,-3.3553,-3.3548,-3.3526,-3.3529,-3.3519,-3.3504,-3.35,-3.349,-3.3487,-3.3477,-3.3472,-3.3464,-3.3442,-3.343,-3.3442,-3.3421,-3.3431,-3.3432,-3.3435,-3.3435,-3.3482,-3.3434,-3.3434,-3.3434,-3.3434,0,-3.3595,-3.3602,-3.3572,-3.3575,-3.3582,-3.3558,-3.3565,-3.3552,-3.3539,-3.3537,-3.3513,-3.3512,-3.3483,-3.3478,-3.3461,-3.3461,-3.3459,-3.3449,-3.3444,-3.345,-3.3451,-3.3446,-3.3443,-3.3435,-3.3435,-3.3435,-3.3435,0,-3.3645,-3.3625,-3.3629,-3.3607,-3.3601,-3.3607,-3.3587,-3.3588,-3.3572,-3.3571,-3.3569,-3.3544,-3.3537,-3.3514,-3.3501,-3.3489,-3.3493,-3.3485,-3.3498,-3.3495,-3.3506,-3.3504,-3.355,-3.3553,-3.3506,-3.3506,-3.3507,0,-3.3671,-3.3676,-3.3655,-3.3652,-3.3644,-3.3641,-3.3636,-3.3611,-3.3607,-3.359,-3.3592,-3.3583,-3.3574,-3.3562,-3.3542,-3.3531,-3.3521,-3.3538,-3.3519,-3.3525,-3.3519,-3.3518,-3.3517,-3.3542,-3.3542,-3.3543,-3.3543,0,-3.372,-3.3709,-3.3704,-3.3694,-3.3689,-3.368,-3.367,-3.3669,-3.3641,-3.3637,-3.3629,-3.3622,-3.3608,-3.3598,-3.3583,-3.3571,-3.3552,-3.3549,-3.3551,-3.3557,-3.3563,-3.3557,-3.3507,-3.3548,-3.3548,-3.3547,-3.3547,-3.3547,-3.3757,-3.3759,-3.3744,-3.3738,-3.3727,-3.3717,-3.3716,-3.37,-3.3694,-3.3681,-3.3666,-3.366,-3.3642,-3.362,-3.361,-3.3602,-3.3592,-3.3595,-3.3595,-3.3596,-3.3598,-3.3565,-3.36,-3.3599,-3.3599,-3.3599,-3.3599,0,-3.3802,-3.3791,-3.3785,-3.3771,-3.3766,-3.3749,-3.3736,-3.3731,-3.3726,-3.3712,-3.3704,-3.3693,-3.3682,-3.3661,-3.3648,-3.3646,-3.3636,-3.3643,-3.3642,-3.3639,-3.3609,-3.3608,-3.3651,-3.3651,-3.3651,-3.3651,-3.3651,-3.3651,-3.3825,-3.3827,-3.3815,-3.381,-3.3798,-3.3791,-3.3785,-3.3775,-3.3763,-3.3753,-3.3744,-3.373,-3.3712,-3.3697,-3.3685,-3.3679,-3.3674,-3.3684,-3.3674,-3.3646,-3.3641,-3.3637,-3.3636,-3.3683,-3.3683,-3.3705,-3.3705,-3.3705]}]]